owner,sensor,date,latitude,longitude,vertical_datum,wind_speed,wind_to_direction,wind_speed_of_gust,qcFlag 
NDBC,ioos:station:NOAA.NDBC:BURL1:1,2019-03-01T03:00:00Z,28.9060,-89.4290,30.5,6.2,200.0,6.2,'1111122,1111122,1111122' 
NDBC,ioos:station:NOAA.NDBC:BURL1:1,2019-03-01T05:00:00Z,28.9060,-89.4290,30.5,3.1,30.0,3.1,'1111122,1111122,1111122' 
NDBC,ioos:station:NOAA.NDBC:BURL1:1,2019-03-01T06:00:00Z,28.9060,-89.4290,30.5,2.6,20.0,2.6,'1111122,1111122,1111122' 
NDBC,ioos:station:NOAA.NDBC:BURL1:1,2019-03-01T08:00:00Z,28.9060,-89.4290,30.5,4.1,170.0,4.6,'1111122,1111122,1111122' 
NDBC,ioos:station:NOAA.NDBC:BURL1:1,2019-03-01T09:00:00Z,28.9060,-89.4290,30.5,6.2,180.0,6.2,'1111122,1111122,1111122' 
NDBC,ioos:station:NOAA.NDBC:BURL1:1,2019-03-01T10:00:00Z,28.9060,-89.4290,30.5,19.6,300.0,24.7,'1111122,1111122,1111122' 
NDBC,ioos:station:NOAA.NDBC:BURL1:1,2019-03-01T12:00:00Z,28.9060,-89.4290,30.5,3.1,320.0,3.1,'1111122,1111122,1111122' 
NDBC,ioos:station:NOAA.NDBC:BURL1:1,2019-03-01T13:00:00Z,28.9060,-89.4290,30.5,5.1,160.0,5.7,'1111122,1111122,1111122' 
NDBC,ioos:station:NOAA.NDBC:BURL1:1,2019-03-01T14:00:00Z,28.9060,-89.4290,30.5,6.2,160.0,6.2,'1111122,1111122,1111122' 
NDBC,ioos:station:NOAA.NDBC:BURL1:1,2019-03-01T16:00:00Z,28.9060,-89.4290,30.5,4.1,230.0,4.6,'1111122,1111122,1111122' 
NDBC,ioos:station:NOAA.NDBC:BURL1:1,2019-03-01T17:00:00Z,28.9060,-89.4290,30.5,3.6,240.0,4.1,'1111122,1111122,1111122' 
NDBC,ioos:station:NOAA.NDBC:BURL1:1,2019-03-01T18:00:00Z,28.9060,-89.4290,30.5,2.1,190.0,2.6,'1111122,1111122,1111122' 
NDBC,ioos:station:NOAA.NDBC:BURL1:1,2019-03-01T20:00:00Z,28.9060,-89.4290,30.5,2.6,150.0,2.6,'1111122,1111122,1111122' 
NDBC,ioos:station:NOAA.NDBC:BURL1:1,2019-03-01T21:00:00Z,28.9060,-89.4290,30.5,3.1,130.0,3.6,'1111122,1111122,1111122' 
NDBC,ioos:station:NOAA.NDBC:BURL1:1,2019-03-01T22:00:00Z,28.9060,-89.4290,30.5,1.0,20.0,2.1,'1111122,1111122,1111122' 
NDBC,ioos:station:NOAA.NDBC:BURL1:1,2019-03-01T23:00:00Z,28.9060,-89.4290,30.5,1.5,180.0,1.5,'1111122,1111122,1111122' 
NDBC,ioos:station:NOAA.NDBC:BURL1:1,2019-03-02T00:00:00Z,28.9060,-89.4290,30.5,2.1,130.0,2.1,'1111122,1111122,1111122' 
NDBC,ioos:station:NOAA.NDBC:BURL1:1,2019-03-02T02:00:00Z,28.9060,-89.4290,30.5,1.5,80.0,1.5,'1111122,1111122,1111122' 
NDBC,ioos:station:NOAA.NDBC:BURL1:1,2019-03-02T03:00:00Z,28.9060,-89.4290,30.5,2.1,90.0,2.6,'1111122,1111122,1111122' 
NDBC,ioos:station:NOAA.NDBC:BURL1:1,2019-03-02T04:00:00Z,28.9060,-89.4290,30.5,4.6,120.0,5.1,'1111122,1111122,1111122' 
NDBC,ioos:station:NOAA.NDBC:BURL1:1,2019-03-02T05:00:00Z,28.9060,-89.4290,30.5,4.6,160.0,4.6,'1111122,1111122,1111122' 
NDBC,ioos:station:NOAA.NDBC:BURL1:1,2019-03-02T06:00:00Z,28.9060,-89.4290,30.5,4.6,160.0,4.6,'1111122,1111122,1111122' 
NDBC,ioos:station:NOAA.NDBC:BURL1:1,2019-03-02T07:00:00Z,28.9060,-89.4290,30.5,5.1,180.0,5.1,'1111122,1111122,1111122' 
NDBC,ioos:station:NOAA.NDBC:BURL1:1,2019-03-02T08:00:00Z,28.9060,-89.4290,30.5,5.1,190.0,5.1,'1111122,1111122,1111122' 
NDBC,ioos:station:NOAA.NDBC:BURL1:1,2019-03-02T09:00:00Z,28.9060,-89.4290,30.5,5.7,200.0,6.2,'1111122,1111122,1111122' 
NDBC,ioos:station:NOAA.NDBC:BURL1:1,2019-03-02T10:00:00Z,28.9060,-89.4290,30.5,7.7,210.0,7.7,'1111122,1111122,1111122' 
NDBC,ioos:station:NOAA.NDBC:BURL1:1,2019-03-02T11:00:00Z,28.9060,-89.4290,30.5,4.6,240.0,5.1,'1111122,1111122,1111122' 
NDBC,ioos:station:NOAA.NDBC:BURL1:1,2019-03-02T12:00:00Z,28.9060,-89.4290,30.5,4.1,260.0,4.1,'1111122,1111122,1111122' 
NDBC,ioos:station:NOAA.NDBC:BURL1:1,2019-03-02T13:00:00Z,28.9060,-89.4290,30.5,3.6,260.0,4.1,'1111122,1111122,1111122' 
NDBC,ioos:station:NOAA.NDBC:BURL1:1,2019-03-02T14:00:00Z,28.9060,-89.4290,30.5,5.1,270.0,5.7,'1111122,1111122,1111122' 
NDBC,ioos:station:NOAA.NDBC:BURL1:1,2019-03-02T15:00:00Z,28.9060,-89.4290,30.5,3.1,290.0,3.6,'1111122,1111122,1111122' 
NDBC,ioos:station:NOAA.NDBC:BURL1:1,2019-03-02T17:00:00Z,28.9060,-89.4290,30.5,5.1,170.0,5.1,'1111122,1111122,1111122' 
NDBC,ioos:station:NOAA.NDBC:BURL1:1,2019-03-02T18:00:00Z,28.9060,-89.4290,30.5,3.1,200.0,3.1,'1111122,1111122,1111122' 
NDBC,ioos:station:NOAA.NDBC:BURL1:1,2019-03-02T19:00:00Z,28.9060,-89.4290,30.5,4.1,260.0,4.6,'1111122,1111122,1111122' 
NDBC,ioos:station:NOAA.NDBC:BURL1:1,2019-03-02T20:00:00Z,28.9060,-89.4290,30.5,4.6,330.0,5.1,'1111122,1111122,1111122' 
NDBC,ioos:station:NOAA.NDBC:BURL1:1,2019-03-02T22:00:00Z,28.9060,-89.4290,30.5,2.1,340.0,2.1,'1111122,1111122,1111122' 
NDBC,ioos:station:NOAA.NDBC:BURL1:1,2019-03-03T00:00:00Z,28.9060,-89.4290,30.5,1.5,70.0,1.5,'1111122,1111122,1111122' 
NDBC,ioos:station:NOAA.NDBC:BURL1:1,2019-03-03T01:00:00Z,28.9060,-89.4290,30.5,4.1,50.0,4.1,'1111122,1111122,1111122' 
NDBC,ioos:station:NOAA.NDBC:BURL1:1,2019-03-03T03:00:00Z,28.9060,-89.4290,30.5,6.2,100.0,6.2,'1111122,1111122,1111122' 
NDBC,ioos:station:NOAA.NDBC:BURL1:1,2019-03-03T04:00:00Z,28.9060,-89.4290,30.5,4.6,90.0,5.1,'1111122,1111122,1111122' 
NDBC,ioos:station:NOAA.NDBC:BURL1:1,2019-03-03T05:00:00Z,28.9060,-89.4290,30.5,6.2,100.0,6.2,'1111122,1111122,1111122' 
NDBC,ioos:station:NOAA.NDBC:BURL1:1,2019-03-03T06:00:00Z,28.9060,-89.4290,30.5,5.7,110.0,6.2,'1111122,1111122,1111122' 
NDBC,ioos:station:NOAA.NDBC:BURL1:1,2019-03-03T08:00:00Z,28.9060,-89.4290,30.5,5.1,130.0,5.7,'1111122,1111122,1111122' 
NDBC,ioos:station:NOAA.NDBC:BURL1:1,2019-03-03T09:00:00Z,28.9060,-89.4290,30.5,5.7,130.0,5.7,'1111122,1111122,1111122' 
NDBC,ioos:station:NOAA.NDBC:BURL1:1,2019-03-03T10:00:00Z,28.9060,-89.4290,30.5,4.6,130.0,5.1,'1111122,1111122,1111122' 
NDBC,ioos:station:NOAA.NDBC:BURL1:1,2019-03-03T11:00:00Z,28.9060,-89.4290,30.5,4.1,150.0,4.6,'1111122,1111122,1111122' 
NDBC,ioos:station:NOAA.NDBC:BURL1:1,2019-03-03T12:00:00Z,28.9060,-89.4290,30.5,5.7,180.0,6.2,'1111122,1111122,1111122' 
NDBC,ioos:station:NOAA.NDBC:BURL1:1,2019-03-03T13:00:00Z,28.9060,-89.4290,30.5,7.2,190.0,7.2,'1111122,1111122,1111122' 
NDBC,ioos:station:NOAA.NDBC:BURL1:1,2019-03-03T14:00:00Z,28.9060,-89.4290,30.5,6.2,200.0,6.7,'1111122,1111122,1111122' 
NDBC,ioos:station:NOAA.NDBC:BURL1:1,2019-03-03T15:00:00Z,28.9060,-89.4290,30.5,6.2,190.0,6.7,'1111122,1111122,1111122' 
NDBC,ioos:station:NOAA.NDBC:BURL1:1,2019-03-03T16:00:00Z,28.9060,-89.4290,30.5,9.8,200.0,9.8,'1111122,1111122,1111122' 
NDBC,ioos:station:NOAA.NDBC:BURL1:1,2019-03-03T17:00:00Z,28.9060,-89.4290,30.5,10.3,200.0,10.3,'1111122,1111122,1111122' 
NDBC,ioos:station:NOAA.NDBC:BURL1:1,2019-03-03T18:00:00Z,28.9060,-89.4290,30.5,11.8,200.0,11.8,'1111122,1111122,1111122' 
NDBC,ioos:station:NOAA.NDBC:BURL1:1,2019-03-03T19:00:00Z,28.9060,-89.4290,30.5,12.4,200.0,12.9,'1111122,1111122,1111122' 
NDBC,ioos:station:NOAA.NDBC:BURL1:1,2019-03-03T20:00:00Z,28.9060,-89.4290,30.5,11.8,210.0,11.8,'1111122,1111122,1111122' 
NDBC,ioos:station:NOAA.NDBC:BURL1:1,2019-03-03T22:00:00Z,28.9060,-89.4290,30.5,9.3,230.0,9.8,'1111122,1111122,1111122' 
NDBC,ioos:station:NOAA.NDBC:BURL1:1,2019-03-03T23:00:00Z,28.9060,-89.4290,30.5,9.3,240.0,9.8,'1111122,1111122,1111122' 
NDBC,ioos:station:NOAA.NDBC:BURL1:1,2019-03-04T00:00:00Z,28.9060,-89.4290,30.5,11.8,350.0,13.4,'1111122,1111122,1111122' 
NDBC,ioos:station:NOAA.NDBC:BURL1:1,2019-03-04T01:00:00Z,28.9060,-89.4290,30.5,9.3,350.0,10.3,'1111122,1111122,1111122' 
NDBC,ioos:station:NOAA.NDBC:BURL1:1,2019-03-04T03:00:00Z,28.9060,-89.4290,30.5,8.2,360.0,8.2,'1111122,1111122,1111122' 
NDBC,ioos:station:NOAA.NDBC:BURL1:1,2019-03-04T05:00:00Z,28.9060,-89.4290,30.5,9.8,360.0,10.3,'1111122,1111122,1111122' 
NDBC,ioos:station:NOAA.NDBC:BURL1:1,2019-03-04T06:00:00Z,28.9060,-89.4290,30.5,10.8,360.0,11.8,'1111122,1111122,1111122' 
NDBC,ioos:station:NOAA.NDBC:BURL1:1,2019-03-04T07:00:00Z,28.9060,-89.4290,30.5,11.8,360.0,12.9,'1111122,1111122,1111122' 
NDBC,ioos:station:NOAA.NDBC:BURL1:1,2019-03-04T08:00:00Z,28.9060,-89.4290,30.5,12.9,360.0,13.9,'1111122,1111122,1111122' 
NDBC,ioos:station:NOAA.NDBC:BURL1:1,2019-03-04T09:00:00Z,28.9060,-89.4290,30.5,12.4,360.0,13.4,'1111122,1111122,1111122' 
NDBC,ioos:station:NOAA.NDBC:BURL1:1,2019-03-04T10:00:00Z,28.9060,-89.4290,30.5,11.8,360.0,12.9,'1111122,1111122,1111122' 
NDBC,ioos:station:NOAA.NDBC:BURL1:1,2019-03-04T11:00:00Z,28.9060,-89.4290,30.5,13.4,10.0,13.9,'1111122,1111122,1111122' 
NDBC,ioos:station:NOAA.NDBC:BURL1:1,2019-03-04T12:00:00Z,28.9060,-89.4290,30.5,11.3,10.0,12.4,'1111122,1111122,1111122' 
NDBC,ioos:station:NOAA.NDBC:BURL1:1,2019-03-04T13:00:00Z,28.9060,-89.4290,30.5,10.8,10.0,11.3,'1111122,1111122,1111122' 
NDBC,ioos:station:NOAA.NDBC:BURL1:1,2019-03-04T14:00:00Z,28.9060,-89.4290,30.5,10.3,10.0,10.8,'1111122,1111122,1111122' 
NDBC,ioos:station:NOAA.NDBC:BURL1:1,2019-03-04T16:00:00Z,28.9060,-89.4290,30.5,11.3,10.0,11.8,'1111122,1111122,1111122' 
NDBC,ioos:station:NOAA.NDBC:BURL1:1,2019-03-04T17:00:00Z,28.9060,-89.4290,30.5,10.3,10.0,10.8,'1111122,1111122,1111122' 
NDBC,ioos:station:NOAA.NDBC:BURL1:1,2019-03-04T18:00:00Z,28.9060,-89.4290,30.5,11.8,10.0,13.9,'1111122,1111122,1111122' 
NDBC,ioos:station:NOAA.NDBC:BURL1:1,2019-03-04T19:00:00Z,28.9060,-89.4290,30.5,11.3,20.0,12.4,'1111122,1111122,1111122' 
NDBC,ioos:station:NOAA.NDBC:BURL1:1,2019-03-04T21:00:00Z,28.9060,-89.4290,30.5,11.8,10.0,12.9,'1111122,1111122,1111122' 
NDBC,ioos:station:NOAA.NDBC:BURL1:1,2019-03-04T23:00:00Z,28.9060,-89.4290,30.5,8.2,10.0,9.3,'1111122,1111122,1111122' 
NDBC,ioos:station:NOAA.NDBC:BURL1:1,2019-03-05T00:00:00Z,28.9060,-89.4290,30.5,8.8,20.0,9.8,'1111122,1111122,1111122' 
NDBC,ioos:station:NOAA.NDBC:BURL1:1,2019-03-05T01:00:00Z,28.9060,-89.4290,30.5,5.7,20.0,6.7,'1111122,1111122,1111122' 
NDBC,ioos:station:NOAA.NDBC:BURL1:1,2019-03-05T03:00:00Z,28.9060,-89.4290,30.5,9.3,10.0,9.8,'1111122,1111122,1111122' 
NDBC,ioos:station:NOAA.NDBC:BURL1:1,2019-03-05T05:00:00Z,28.9060,-89.4290,30.5,9.3,10.0,9.8,'1111122,1111122,1111122' 
NDBC,ioos:station:NOAA.NDBC:BURL1:1,2019-03-05T06:00:00Z,28.9060,-89.4290,30.5,10.3,360.0,10.8,'1111122,1111122,1111122' 
NDBC,ioos:station:NOAA.NDBC:BURL1:1,2019-03-05T07:00:00Z,28.9060,-89.4290,30.5,10.3,360.0,-9999.0,'1111122,1111122,1111122' 
NDBC,ioos:station:NOAA.NDBC:BURL1:1,2019-03-05T08:00:00Z,28.9060,-89.4290,30.5,9.3,360.0,11.8,'1111122,1111122,1111122' 
NDBC,ioos:station:NOAA.NDBC:BURL1:1,2019-03-05T09:00:00Z,28.9060,-89.4290,30.5,11.8,360.0,12.9,'1111122,1111122,1111122' 
NDBC,ioos:station:NOAA.NDBC:BURL1:1,2019-03-05T12:00:00Z,28.9060,-89.4290,30.5,9.3,10.0,9.8,'1111122,1111122,1111122' 
NDBC,ioos:station:NOAA.NDBC:BURL1:1,2019-03-05T13:00:00Z,28.9060,-89.4290,30.5,8.8,360.0,9.8,'1111122,1111122,1111122' 
NDBC,ioos:station:NOAA.NDBC:BURL1:1,2019-03-05T14:00:00Z,28.9060,-89.4290,30.5,11.8,10.0,12.4,'1111122,1111122,1111122' 
NDBC,ioos:station:NOAA.NDBC:BURL1:1,2019-03-05T16:00:00Z,28.9060,-89.4290,30.5,10.3,10.0,11.3,'1111122,1111122,1111122' 
NDBC,ioos:station:NOAA.NDBC:BURL1:1,2019-03-05T17:00:00Z,28.9060,-89.4290,30.5,10.3,10.0,11.3,'1111122,1111122,1111122' 
NDBC,ioos:station:NOAA.NDBC:BURL1:1,2019-03-05T18:00:00Z,28.9060,-89.4290,30.5,8.2,10.0,9.3,'1111122,1111122,1111122' 
NDBC,ioos:station:NOAA.NDBC:BURL1:1,2019-03-05T20:00:00Z,28.9060,-89.4290,30.5,8.2,360.0,9.3,'1111122,1111122,1111122' 
NDBC,ioos:station:NOAA.NDBC:BURL1:1,2019-03-05T21:00:00Z,28.9060,-89.4290,30.5,9.3,10.0,10.3,'1111122,1111122,1111122' 
NDBC,ioos:station:NOAA.NDBC:BURL1:1,2019-03-05T23:00:00Z,28.9060,-89.4290,30.5,9.8,10.0,10.8,'1111122,1111122,1111122' 
NDBC,ioos:station:NOAA.NDBC:BURL1:1,2019-03-06T00:00:00Z,28.9060,-89.4290,30.5,8.2,10.0,9.3,'1111122,1111122,1111122' 
NDBC,ioos:station:NOAA.NDBC:BURL1:1,2019-03-06T01:00:00Z,28.9060,-89.4290,30.5,9.3,360.0,10.3,'1111122,1111122,1111122' 
NDBC,ioos:station:NOAA.NDBC:BURL1:1,2019-03-06T02:00:00Z,28.9060,-89.4290,30.5,10.8,10.0,11.8,'1111122,1111122,1111122' 
NDBC,ioos:station:NOAA.NDBC:BURL1:1,2019-03-06T05:00:00Z,28.9060,-89.4290,30.5,11.3,10.0,12.4,'1111122,1111122,1111122' 
NDBC,ioos:station:NOAA.NDBC:BURL1:1,2019-03-06T06:00:00Z,28.9060,-89.4290,30.5,10.3,10.0,10.8,'1111122,1111122,1111122' 
NDBC,ioos:station:NOAA.NDBC:BURL1:1,2019-03-06T07:00:00Z,28.9060,-89.4290,30.5,10.8,10.0,11.8,'1111122,1111122,1111122' 
NDBC,ioos:station:NOAA.NDBC:BURL1:1,2019-03-06T08:00:00Z,28.9060,-89.4290,30.5,9.8,10.0,10.8,'1111122,1111122,1111122' 
NDBC,ioos:station:NOAA.NDBC:BURL1:1,2019-03-06T09:00:00Z,28.9060,-89.4290,30.5,9.8,10.0,10.3,'1111122,1111122,1111122' 
NDBC,ioos:station:NOAA.NDBC:BURL1:1,2019-03-06T11:00:00Z,28.9060,-89.4290,30.5,8.8,20.0,9.8,'1111122,1111122,1111122' 
NDBC,ioos:station:NOAA.NDBC:BURL1:1,2019-03-06T12:00:00Z,28.9060,-89.4290,30.5,9.8,30.0,11.3,'1111122,1111122,1111122' 
NDBC,ioos:station:NOAA.NDBC:BURL1:1,2019-03-06T13:00:00Z,28.9060,-89.4290,30.5,8.8,30.0,9.8,'1111122,1111122,1111122' 
NDBC,ioos:station:NOAA.NDBC:BURL1:1,2019-03-06T14:00:00Z,28.9060,-89.4290,30.5,10.3,40.0,11.8,'1111122,1111122,1111122' 
NDBC,ioos:station:NOAA.NDBC:BURL1:1,2019-03-06T16:00:00Z,28.9060,-89.4290,30.5,8.8,40.0,9.3,'1111122,1111122,1111122' 
NDBC,ioos:station:NOAA.NDBC:BURL1:1,2019-03-06T17:00:00Z,28.9060,-89.4290,30.5,7.7,50.0,8.2,'1111122,1111122,1111122' 
NDBC,ioos:station:NOAA.NDBC:BURL1:1,2019-03-06T19:00:00Z,28.9060,-89.4290,30.5,8.2,60.0,8.8,'1111122,1111122,1111122' 
NDBC,ioos:station:NOAA.NDBC:BURL1:1,2019-03-06T20:00:00Z,28.9060,-89.4290,30.5,6.7,60.0,7.2,'1111122,1111122,1111122' 
NDBC,ioos:station:NOAA.NDBC:BURL1:1,2019-03-06T21:00:00Z,28.9060,-89.4290,30.5,5.7,60.0,6.2,'1111122,1111122,1111122' 
NDBC,ioos:station:NOAA.NDBC:BURL1:1,2019-03-06T22:00:00Z,28.9060,-89.4290,30.5,5.1,50.0,5.7,'1111122,1111122,1111122' 
NDBC,ioos:station:NOAA.NDBC:BURL1:1,2019-03-06T23:00:00Z,28.9060,-89.4290,30.5,5.7,50.0,6.7,'1111122,1111122,1111122' 
NDBC,ioos:station:NOAA.NDBC:BURL1:1,2019-03-07T00:00:00Z,28.9060,-89.4290,30.5,5.7,50.0,6.7,'1111122,1111122,1111122' 
NDBC,ioos:station:NOAA.NDBC:BURL1:1,2019-03-07T02:00:00Z,28.9060,-89.4290,30.5,2.6,40.0,3.1,'1111122,1111122,1111122' 
NDBC,ioos:station:NOAA.NDBC:BURL1:1,2019-03-07T03:00:00Z,28.9060,-89.4290,30.5,3.6,60.0,3.6,'1111122,1111122,1111122' 
NDBC,ioos:station:NOAA.NDBC:BURL1:1,2019-03-07T04:00:00Z,28.9060,-89.4290,30.5,2.6,50.0,2.6,'1111122,1111122,1111122' 
NDBC,ioos:station:NOAA.NDBC:BURL1:1,2019-03-07T05:00:00Z,28.9060,-89.4290,30.5,1.5,60.0,2.1,'1111122,1111122,1111122' 
NDBC,ioos:station:NOAA.NDBC:BURL1:1,2019-03-07T06:00:00Z,28.9060,-89.4290,30.5,2.6,70.0,2.6,'1111122,1111122,1111122' 
NDBC,ioos:station:NOAA.NDBC:BURL1:1,2019-03-07T08:00:00Z,28.9060,-89.4290,30.5,5.1,60.0,5.1,'1111122,1111122,1111122' 
NDBC,ioos:station:NOAA.NDBC:BURL1:1,2019-03-07T09:00:00Z,28.9060,-89.4290,30.5,6.2,50.0,6.2,'1111122,1111122,1111122' 
NDBC,ioos:station:NOAA.NDBC:BURL1:1,2019-03-07T10:00:00Z,28.9060,-89.4290,30.5,6.2,50.0,6.2,'1111122,1111122,1111122' 
NDBC,ioos:station:NOAA.NDBC:BURL1:1,2019-03-07T11:00:00Z,28.9060,-89.4290,30.5,5.7,40.0,6.2,'1111122,1111122,1111122' 
NDBC,ioos:station:NOAA.NDBC:BURL1:1,2019-03-07T12:00:00Z,28.9060,-89.4290,30.5,6.7,40.0,6.7,'1111122,1111122,1111122' 
NDBC,ioos:station:NOAA.NDBC:BURL1:1,2019-03-07T13:00:00Z,28.9060,-89.4290,30.5,7.7,40.0,7.7,'1111122,1111122,1111122' 
NDBC,ioos:station:NOAA.NDBC:BURL1:1,2019-03-07T14:00:00Z,28.9060,-89.4290,30.5,8.2,50.0,8.2,'1111122,1111122,1111122' 
NDBC,ioos:station:NOAA.NDBC:BURL1:1,2019-03-07T15:00:00Z,28.9060,-89.4290,30.5,8.2,60.0,8.2,'1111122,1111122,1111122' 
NDBC,ioos:station:NOAA.NDBC:BURL1:1,2019-03-07T16:00:00Z,28.9060,-89.4290,30.5,9.3,60.0,9.3,'1111122,1111122,1111122' 
NDBC,ioos:station:NOAA.NDBC:BURL1:1,2019-03-07T17:00:00Z,28.9060,-89.4290,30.5,8.2,50.0,8.2,'1111122,1111122,1111122' 
NDBC,ioos:station:NOAA.NDBC:BURL1:1,2019-03-07T18:00:00Z,28.9060,-89.4290,30.5,7.7,60.0,7.7,'1111122,1111122,1111122' 
NDBC,ioos:station:NOAA.NDBC:BURL1:1,2019-03-07T20:00:00Z,28.9060,-89.4290,30.5,6.2,60.0,6.7,'1111122,1111122,1111122' 
NDBC,ioos:station:NOAA.NDBC:BURL1:1,2019-03-07T22:00:00Z,28.9060,-89.4290,30.5,3.1,110.0,3.6,'1111122,1111122,1111122' 
NDBC,ioos:station:NOAA.NDBC:BURL1:1,2019-03-07T23:00:00Z,28.9060,-89.4290,30.5,4.1,140.0,4.6,'1111122,1111122,1111122' 
NDBC,ioos:station:NOAA.NDBC:BURL1:1,2019-03-08T00:00:00Z,28.9060,-89.4290,30.5,6.2,140.0,6.2,'1111122,1111122,1111122' 
NDBC,ioos:station:NOAA.NDBC:BURL1:1,2019-03-08T01:00:00Z,28.9060,-89.4290,30.5,7.2,150.0,7.2,'1111122,1111122,1111122' 
NDBC,ioos:station:NOAA.NDBC:BURL1:1,2019-03-08T03:00:00Z,28.9060,-89.4290,30.5,7.2,150.0,7.2,'1111122,1111122,1111122' 
NDBC,ioos:station:NOAA.NDBC:BURL1:1,2019-03-08T05:00:00Z,28.9060,-89.4290,30.5,9.8,160.0,9.8,'1111122,1111122,1111122' 
NDBC,ioos:station:NOAA.NDBC:BURL1:1,2019-03-08T07:00:00Z,28.9060,-89.4290,30.5,8.2,170.0,8.8,'1111122,1111122,1111122' 
NDBC,ioos:station:NOAA.NDBC:BURL1:1,2019-03-08T08:00:00Z,28.9060,-89.4290,30.5,9.3,170.0,9.8,'1111122,1111122,1111122' 
NDBC,ioos:station:NOAA.NDBC:BURL1:1,2019-03-08T10:00:00Z,28.9060,-89.4290,30.5,8.2,170.0,8.2,'1111122,1111122,1111122' 
NDBC,ioos:station:NOAA.NDBC:BURL1:1,2019-03-08T11:00:00Z,28.9060,-89.4290,30.5,7.2,160.0,7.7,'1111122,1111122,1111122' 
NDBC,ioos:station:NOAA.NDBC:BURL1:1,2019-03-08T12:00:00Z,28.9060,-89.4290,30.5,7.7,160.0,7.7,'1111122,1111122,1111122' 
NDBC,ioos:station:NOAA.NDBC:BURL1:1,2019-03-08T13:00:00Z,28.9060,-89.4290,30.5,6.2,180.0,6.2,'1111122,1111122,1111122' 
NDBC,ioos:station:NOAA.NDBC:BURL1:1,2019-03-08T16:00:00Z,28.9060,-89.4290,30.5,7.2,170.0,7.2,'1111122,1111122,1111122' 
NDBC,ioos:station:NOAA.NDBC:BURL1:1,2019-03-08T17:00:00Z,28.9060,-89.4290,30.5,7.7,170.0,7.7,'1111122,1111122,1111122' 
NDBC,ioos:station:NOAA.NDBC:BURL1:1,2019-03-08T18:00:00Z,28.9060,-89.4290,30.5,7.7,160.0,8.2,'1111122,1111122,1111122' 
NDBC,ioos:station:NOAA.NDBC:BURL1:1,2019-03-08T20:00:00Z,28.9060,-89.4290,30.5,6.7,150.0,6.7,'1111122,1111122,1111122' 
NDBC,ioos:station:NOAA.NDBC:BURL1:1,2019-03-08T22:00:00Z,28.9060,-89.4290,30.5,7.7,160.0,7.7,'1111122,1111122,1111122' 
NDBC,ioos:station:NOAA.NDBC:BURL1:1,2019-03-08T23:00:00Z,28.9060,-89.4290,30.5,7.2,150.0,7.2,'1111122,1111122,1111122' 
NDBC,ioos:station:NOAA.NDBC:BURL1:1,2019-03-09T00:00:00Z,28.9060,-89.4290,30.5,6.2,150.0,6.2,'1111122,1111122,1111122' 
NDBC,ioos:station:NOAA.NDBC:BURL1:1,2019-03-09T02:00:00Z,28.9060,-89.4290,30.5,6.7,150.0,6.7,'1111122,1111122,1111122' 
NDBC,ioos:station:NOAA.NDBC:BURL1:1,2019-03-09T03:00:00Z,28.9060,-89.4290,30.5,7.7,150.0,7.7,'1111122,1111122,1111122' 
NDBC,ioos:station:NOAA.NDBC:BURL1:1,2019-03-09T04:00:00Z,28.9060,-89.4290,30.5,7.7,150.0,7.7,'1111122,1111122,1111122' 
NDBC,ioos:station:NOAA.NDBC:BURL1:1,2019-03-09T05:00:00Z,28.9060,-89.4290,30.5,9.3,160.0,9.3,'1111122,1111122,1111122' 
NDBC,ioos:station:NOAA.NDBC:BURL1:1,2019-03-09T06:00:00Z,28.9060,-89.4290,30.5,9.3,150.0,9.3,'1111122,1111122,1111122' 
NDBC,ioos:station:NOAA.NDBC:BURL1:1,2019-03-09T07:00:00Z,28.9060,-89.4290,30.5,8.2,150.0,8.2,'1111122,1111122,1111122' 
NDBC,ioos:station:NOAA.NDBC:BURL1:1,2019-03-09T08:00:00Z,28.9060,-89.4290,30.5,6.7,160.0,6.7,'1111122,1111122,1111122' 
NDBC,ioos:station:NOAA.NDBC:BURL1:1,2019-03-09T09:00:00Z,28.9060,-89.4290,30.5,8.2,160.0,8.2,'1111122,1111122,1111122' 
NDBC,ioos:station:NOAA.NDBC:BURL1:1,2019-03-09T10:00:00Z,28.9060,-89.4290,30.5,7.7,160.0,7.7,'1111122,1111122,1111122' 
NDBC,ioos:station:NOAA.NDBC:BURL1:1,2019-03-09T11:00:00Z,28.9060,-89.4290,30.5,7.7,150.0,7.7,'1111122,1111122,1111122' 
NDBC,ioos:station:NOAA.NDBC:BURL1:1,2019-03-09T12:00:00Z,28.9060,-89.4290,30.5,8.8,150.0,9.3,'1111122,1111122,1111122' 
NDBC,ioos:station:NOAA.NDBC:BURL1:1,2019-03-09T13:00:00Z,28.9060,-89.4290,30.5,8.8,150.0,8.8,'1111122,1111122,1111122' 
NDBC,ioos:station:NOAA.NDBC:BURL1:1,2019-03-09T14:00:00Z,28.9060,-89.4290,30.5,8.8,150.0,8.8,'1111122,1111122,1111122' 
NDBC,ioos:station:NOAA.NDBC:BURL1:1,2019-03-09T15:00:00Z,28.9060,-89.4290,30.5,7.7,160.0,7.7,'1111122,1111122,1111122' 
NDBC,ioos:station:NOAA.NDBC:BURL1:1,2019-03-09T16:00:00Z,28.9060,-89.4290,30.5,7.2,150.0,7.2,'1111122,1111122,1111122' 
NDBC,ioos:station:NOAA.NDBC:BURL1:1,2019-03-09T17:00:00Z,28.9060,-89.4290,30.5,7.2,140.0,7.2,'1111122,1111122,1111122' 
NDBC,ioos:station:NOAA.NDBC:BURL1:1,2019-03-09T18:00:00Z,28.9060,-89.4290,30.5,6.7,150.0,6.7,'1111122,1111122,1111122' 
NDBC,ioos:station:NOAA.NDBC:BURL1:1,2019-03-09T19:00:00Z,28.9060,-89.4290,30.5,7.2,150.0,7.2,'1111122,1111122,1111122' 
NDBC,ioos:station:NOAA.NDBC:BURL1:1,2019-03-09T20:00:00Z,28.9060,-89.4290,30.5,8.8,140.0,9.3,'1111122,1111122,1111122' 
NDBC,ioos:station:NOAA.NDBC:BURL1:1,2019-03-09T22:00:00Z,28.9060,-89.4290,30.5,8.2,150.0,8.2,'1111122,1111122,1111122' 
NDBC,ioos:station:NOAA.NDBC:BURL1:1,2019-03-09T23:00:00Z,28.9060,-89.4290,30.5,10.3,150.0,10.3,'1111122,1111122,1111122' 
NDBC,ioos:station:NOAA.NDBC:BURL1:1,2019-03-10T00:00:00Z,28.9060,-89.4290,30.5,8.8,150.0,9.3,'1111122,1111122,1111122' 
NDBC,ioos:station:NOAA.NDBC:BURL1:1,2019-03-10T02:00:00Z,28.9060,-89.4290,30.5,8.2,160.0,8.2,'1111122,1111122,1111122' 
NDBC,ioos:station:NOAA.NDBC:BURL1:1,2019-03-10T03:00:00Z,28.9060,-89.4290,30.5,5.7,180.0,6.2,'1111122,1111122,1111122' 
NDBC,ioos:station:NOAA.NDBC:BURL1:1,2019-03-10T04:00:00Z,28.9060,-89.4290,30.5,6.7,180.0,6.7,'1111122,1111122,1111122' 
NDBC,ioos:station:NOAA.NDBC:BURL1:1,2019-03-10T05:00:00Z,28.9060,-89.4290,30.5,6.2,170.0,6.2,'1111122,1111122,1111122' 
NDBC,ioos:station:NOAA.NDBC:BURL1:1,2019-03-10T06:00:00Z,28.9060,-89.4290,30.5,5.7,180.0,5.7,'1111122,1111122,1111122' 
NDBC,ioos:station:NOAA.NDBC:BURL1:1,2019-03-10T08:00:00Z,28.9060,-89.4290,30.5,6.2,180.0,6.2,'1111122,1111122,1111122' 
NDBC,ioos:station:NOAA.NDBC:BURL1:1,2019-03-10T09:00:00Z,28.9060,-89.4290,30.5,6.2,170.0,6.2,'1111122,1111122,1111122' 
NDBC,ioos:station:NOAA.NDBC:BURL1:1,2019-03-10T10:00:00Z,28.9060,-89.4290,30.5,5.1,160.0,5.1,'1111122,1111122,1111122' 
NDBC,ioos:station:NOAA.NDBC:BURL1:1,2019-03-10T11:00:00Z,28.9060,-89.4290,30.5,3.6,30.0,4.1,'1111122,1111122,1111122' 
NDBC,ioos:station:NOAA.NDBC:BURL1:1,2019-03-10T12:00:00Z,28.9060,-89.4290,30.5,3.6,100.0,4.6,'1111122,1111122,1111122' 
NDBC,ioos:station:NOAA.NDBC:BURL1:1,2019-03-10T13:00:00Z,28.9060,-89.4290,30.5,4.6,120.0,4.6,'1111122,1111122,1111122' 
NDBC,ioos:station:NOAA.NDBC:BURL1:1,2019-03-10T14:00:00Z,28.9060,-89.4290,30.5,5.1,90.0,5.7,'1111122,1111122,1111122' 
NDBC,ioos:station:NOAA.NDBC:BURL1:1,2019-03-10T15:00:00Z,28.9060,-89.4290,30.5,5.7,120.0,5.7,'1111122,1111122,1111122' 
NDBC,ioos:station:NOAA.NDBC:BURL1:1,2019-03-10T16:00:00Z,28.9060,-89.4290,30.5,5.7,130.0,6.2,'1111122,1111122,1111122' 
NDBC,ioos:station:NOAA.NDBC:BURL1:1,2019-03-10T18:00:00Z,28.9060,-89.4290,30.5,4.6,130.0,5.1,'1111122,1111122,1111122' 
NDBC,ioos:station:NOAA.NDBC:BURL1:1,2019-03-10T19:00:00Z,28.9060,-89.4290,30.5,5.1,130.0,5.7,'1111122,1111122,1111122' 
NDBC,ioos:station:NOAA.NDBC:BURL1:1,2019-03-10T20:00:00Z,28.9060,-89.4290,30.5,4.6,130.0,4.6,'1111122,1111122,1111122' 
NDBC,ioos:station:NOAA.NDBC:BURL1:1,2019-03-10T22:00:00Z,28.9060,-89.4290,30.5,4.6,140.0,5.1,'1111122,1111122,1111122' 
NDBC,ioos:station:NOAA.NDBC:BURL1:1,2019-03-11T04:00:00Z,28.9060,-89.4290,30.5,6.7,130.0,7.2,'1111122,1111122,1111122' 
NDBC,ioos:station:NOAA.NDBC:BURL1:1,2019-03-11T06:00:00Z,28.9060,-89.4290,30.5,6.2,140.0,6.2,'1111122,1111122,1111122' 
NDBC,ioos:station:NOAA.NDBC:BURL1:1,2019-03-11T07:00:00Z,28.9060,-89.4290,30.5,5.1,130.0,5.1,'1111122,1111122,1111122' 
NDBC,ioos:station:NOAA.NDBC:BURL1:1,2019-03-11T08:00:00Z,28.9060,-89.4290,30.5,5.1,140.0,5.7,'1111122,1111122,1111122' 
NDBC,ioos:station:NOAA.NDBC:BURL1:1,2019-03-11T10:00:00Z,28.9060,-89.4290,30.5,5.1,150.0,5.1,'1111122,1111122,1111122' 
NDBC,ioos:station:NOAA.NDBC:BURL1:1,2019-03-11T12:00:00Z,28.9060,-89.4290,30.5,3.1,140.0,3.6,'1111122,1111122,1111122' 
NDBC,ioos:station:NOAA.NDBC:BURL1:1,2019-03-11T13:00:00Z,28.9060,-89.4290,30.5,1.0,170.0,1.0,'1111122,1111122,1111122' 
NDBC,ioos:station:NOAA.NDBC:BURL1:1,2019-03-11T14:00:00Z,28.9060,-89.4290,30.5,1.5,160.0,2.1,'1111122,1111122,1111122' 
NDBC,ioos:station:NOAA.NDBC:BURL1:1,2019-03-11T16:00:00Z,28.9060,-89.4290,30.5,4.1,160.0,4.1,'1111122,1111122,1111122' 
NDBC,ioos:station:NOAA.NDBC:BURL1:1,2019-03-11T18:00:00Z,28.9060,-89.4290,30.5,1.0,160.0,1.0,'1111122,1111122,1111122' 